Location: Martz Observatory
(42.0083°N, 79.0667°W)
Time: 11:24:41
(UTC-04:00)

Meteor 1-23 Rocket - Visible Passes

Search period start: 07 July 2015 00:00
Search period end: 17 July 2015 00:00
Orbit: 838 x 888 km, 81.3° (Epoch: 06 July)

Date Brightness Start Highest point End Pass type
(mag) Time Alt. Az. Time Alt. Az. Time Alt. Az.
07 Jul 6.2 01:21:51 10° NNE 01:25:49 20° ENE 01:28:48 14° ESE visible
07 Jul 4.4 03:04:02 10° NNW 03:09:29 55° W 03:11:04 41° SW visible
08 Jul 6.2 01:13:36 10° NNE 01:17:31 20° ENE 01:20:17 14° ESE visible
08 Jul 4.3 02:55:45 10° NNW 03:01:12 56° W 03:02:32 44° SW visible
09 Jul 6.1 01:05:19 10° NNE 01:09:13 20° ENE 01:11:47 15° E visible
09 Jul 4.3 02:47:27 10° NNW 02:52:55 56° W 02:54:02 47° SW visible
10 Jul 6.1 00:57:04 10° NNE 01:00:55 19° ENE 01:03:18 15° E visible
10 Jul 4.3 02:39:10 10° NNW 02:44:37 57° W 02:45:33 50° SW visible
11 Jul 6.1 00:48:47 10° NNE 00:52:37 19° ENE 00:54:50 16° E visible
11 Jul 4.3 02:30:52 10° NNW 02:36:19 57° W 02:37:06 52° SW visible
12 Jul 6.1 00:40:31 10° NNE 00:44:19 19° ENE 00:46:25 16° E visible
12 Jul 4.3 02:22:34 10° NNW 02:28:02 58° W 02:28:39 55° WSW visible
13 Jul 6.1 00:32:15 10° NNE 00:36:01 19° ENE 00:37:59 16° E visible
13 Jul 4.2 02:14:17 10° NNW 02:19:45 59° W 02:20:15 56° WSW visible
14 Jul 6.0 00:24:00 10° NNE 00:27:44 19° ENE 00:29:35 16° E visible
14 Jul 4.2 02:05:59 10° NNW 02:11:27 59° W 02:11:51 58° WSW visible
15 Jul 6.0 00:15:43 10° NNE 00:19:25 18° ENE 00:21:12 16° E visible
15 Jul 4.2 01:57:41 10° NNW 02:03:10 60° W 02:03:27 59° WSW visible
16 Jul 6.0 00:07:27 10° NNE 00:11:07 18° ENE 00:12:50 16° E visible
16 Jul 4.2 01:49:23 10° NNW 01:54:53 61° W 01:55:05 60° WSW visible
